Regional Weather Roundup
Issued by NWS Northern Indiana

Home | Current Version | Previous Version | Text Only | Print | Product List | Glossary On
Versions: 1 2 3 4 5 6 7 8 9 10 11 12 13 14 15 16 17 18 19 20 21 22 23 24 25 26 27 28 29 30 31 32 33 34 35 36 37 38 39 40 41 42 43 44 45 46 47 48 49 50
000
ASUS43 KIWX 260000
RWRIWX

KIWX WEATHER ROUNDUP
NATIONAL WEATHER SERVICE NORTHERN INDIANA
800 PM EDT SAT OCT 25 2014

NOTE: "FAIR" INDICATES FEW OR NO CLOUDS BELOW 12,000 FEET WITH NO
SIGNIFICANT WEATHER AND/OR OBSTRUCTIONS TO VISIBILITY.

* THESE STATIONS ARE NOT UNDER NWS QUALITY CONTROL. THEY ALSO MAY NOT
  REPORT WEATHER SUCH AS PRECIPITATION OR FOG.

INZ001>027-260100-
NORTHERN INDIANA

CITY           SKY/WX    TMP DP  RH WIND       PRES   REMARKS
GARY*          CLEAR     64  27  24 W12       29.92R
SOUTH BEND     CLEAR     55  37  50 W7        29.89S
6HR MIN TEMP:  55; 6HR MAX TEMP:  69;

GOSHEN         CLEAR     57  39  51 W8        29.88R
6HR MIN TEMP:  56; 6HR MAX TEMP:  68;

ANGOLA*        CLEAR     59  36  41 VRB5      29.86R
FORT WAYNE     PTCLDY    56  36  47 W7        29.88S
6HR MIN TEMP:  56; 6HR MAX TEMP:  71;

PERU/GRISSOM   CLEAR     57  45  63 W8        29.89S
6HR MIN TEMP:  57; 6HR MAX TEMP:  71;


$$
INZ028>050-260100-
CENTRAL INDIANA

CITY           SKY/WX    TMP DP  RH WIND       PRES   REMARKS
LAFAYETTE      CLEAR     61  44  53 W8        29.92S
6HR MIN TEMP:  61; 6HR MAX TEMP:  73;

KOKOMO*        CLEAR     61  43  51 W9        29.90F
6HR MIN TEMP:  61; 6HR MAX TEMP:  72;

MUNCIE*        CLEAR     63  47  55 W7        29.89F
6HR MIN TEMP:  63; 6HR MAX TEMP:  76; 6HR PCP: TRACE;

INDIANAPOLIS   PTCLDY    62  45  53 W10       29.92F
6HR MIN TEMP:  62; 6HR MAX TEMP:  76;


$$
MIZ043>046-050>051-056>058-064>065-071>073-077>080-260100-
SOUTHWEST LOWER MICHIGAN

CITY           SKY/WX    TMP DP  RH WIND       PRES   REMARKS
BATTLE CREEK   CLEAR     59  31  34 W15       29.85R
6HR MIN TEMP:  59; 6HR MAX TEMP:  68;

BENTON HARBOR  CLEAR     57  43  59 W9        29.88S
6HR MIN TEMP:  56; 6HR MAX TEMP:  63;

COLDWATER*     CLEAR     58  35  40 W8        29.85R
6HR MIN TEMP:  58; 6HR MAX TEMP:  68;

HILLSDALE*     CLEAR     58  31  35 W8        29.84R
HOLLAND        CLEAR     61  39  44 NW15G22   29.86R
6HR MIN TEMP:  59; 6HR MAX TEMP:  66;

GRAND RAPIDS   CLEAR     58  36  43 W14       29.83S
6HR MIN TEMP:  58; 6HR MAX TEMP:  67;

KALAMAZOO      CLEAR     60  32  34 W14       29.86R
6HR MIN TEMP:  60; 6HR MAX TEMP:  67;

STURGIS*       CLEAR     61  36  39 NW9       29.86R
THREE RIVERS*  FAIR      60  35  38 NW8       29.87R
6HR MIN TEMP:  60; 6HR MAX TEMP:  68;


$$
OHZ001>008-015>018-024>025-260100-
NORTHWEST OHIO

CITY           SKY/WX    TMP DP  RH WIND       PRES   REMARKS
DEFIANCE       CLEAR     61  32  33 W3        29.85R
6HR MIN TEMP:  61; 6HR MAX TEMP:  70;

FINDLAY        CLEAR     61  36  39 W17       29.84R
6HR MIN TEMP:  60; 6HR MAX TEMP:  73;

TOLEDO EXPRESS CLEAR     58  30  34 W8        29.83R
6HR MIN TEMP:  58; 6HR MAX TEMP:  69;

TOLEDO METCALF CLEAR     61  29  29 W15       29.83R
6HR MIN TEMP:  61; 6HR MAX TEMP:  70;

LIMA           CLEAR     62  46  55 W10       29.86S
6HR MIN TEMP:  60; 6HR MAX TEMP:  74;


$$
AND FOR LAKE MICHIGAN COASTAL AND OPEN LAKE BUOY OBSERVATIONS

STATION/POSITION TEMP    WIND        PRES    VSBY  WAVE
                 AIR SEA DIR/SP/G                  HT/PER
                 (F)     (DEG/KT/KT) (MB)    (MI)  (FT/S)
CALUMET HARBOR    67     270/  4/  7 1011.8R
MICHIGAN CITY     61     270/  8/ 10   N/A
SAINT JOSEPH      60                 1011.9F
SOUTH LAKE BUOY   58 54  280/ 12/ 14 1011.6R         1/ 3

$$
&&



USA.gov is the U.S. government's official web portal to all federal, state and local government web resources and services.